Tracking 27126 objects as of 30-Mar-2023
HD Live streaming from Space Station
objects crossing your sky now

OPS 9381 (GGTS)

Track OPS 9381 (GGTS) now!
OPS 9381 (GGTS) is classified as:


NORAD ID: 2207
Int'l Code: 1966-053A
Perigee: 33,656.9 km
Apogee: 33,856.8 km
Inclination: 6.5 °
Period: 1,333.3 minutes
Semi major axis: 40127 km
RCS: 0.8912 m2 (medium)
Launch date: June 16, 1966
Source: United States (US)
Launch site: AIR FORCE EASTERN TEST RANGE (AFETR)
Your satellite tracking list
Your tracking list is empty




NASA's NSSDC Master Catalog

Two Line Element Set (TLE):
1  2207U 66053A   23088.53991681 -.00000072  00000-0  00000+0 0  9993
2  2207   6.4754  52.9447 0024904 209.9889 308.7929  1.08002502223467
Source of the keplerian elements: AFSPC